Location: Caltech
(34.1382°N, 118.1253°W)
Time: 17:15:18
(UTC-08:00)

Tiros 1 despin weight - Visible Passes

Search period start: 28 November 2014 00:00
Search period end: 08 December 2014 00:00
Orbit: 600 x 651 km, 48.2° (Epoch: 28 November)

Date Brightness Start Highest point End Pass type
(mag) Time Alt. Az. Time Alt. Az. Time Alt. Az.
28 Nov ? 18:33:56 10° W 18:37:59 31° NNW 18:38:57 28° N visible
29 Nov ? 17:10:25 10° WSW 17:14:56 73° NW 17:19:32 10° NE visible
29 Nov ? 18:53:50 10° WNW 18:57:08 20° NNW 18:57:08 20° NNW visible
30 Nov ? 17:29:43 10° W 17:33:57 38° NNW 17:38:04 11° NE visible
30 Nov ? 19:13:54 10° NW 19:15:17 14° NNW 19:15:17 14° NNW visible
01 Dec ? 17:49:27 10° WNW 17:53:09 24° NNW 17:56:10 13° NNE visible
02 Dec ? 18:09:28 10° NW 18:12:30 17° NNW 18:14:14 14° NNE visible
03 Dec ? 18:29:27 10° NW 18:31:57 14° N 18:32:16 14° N visible
04 Dec ? 18:49:00 10° NNW 18:50:18 13° NNW 18:50:18 13° NNW visible
05 Dec ? 17:25:01 10° NW 17:27:40 15° N 17:30:21 10° NNE visible
05 Dec ? 19:07:59 10° NNW 19:08:19 11° NNW 19:08:19 11° NNW visible
06 Dec ? 17:44:48 10° NNW 17:47:08 14° N 17:49:10 11° NNE visible
07 Dec ? 18:03:59 10° NNW 18:06:35 15° N 18:07:14 14° NNE visible
